Simultaneous Nadir Overpasses (SNOs) Predictions

Prediction of SNOs between AURA and NPP Satellite Orbit:

Table of predicted SNOs for the next 14.0 days since TLE Epoch: 8/16/2014
Index Date (AURA) Time (AURA) Lat,Lon (AURA) SZA (AURA ) Date (NPP) Time (NPP) Lat,Lon (NPP) SZA (NPP ) Distance(km) Time Diff (sec)
1 08/17/2014 22:46:28 75.81, 78.98 84.27 08/17/2014 22:46:19 75.81, 79.02 84.27 1.19 9
2 08/17/2014 23:35:41 -76.53,-111.09 96.56 08/17/2014 23:36:49 -76.52,-111.17 96.60 2.29 68
3 08/20/2014 14:13:42 -75.20, 25.49 94.24 08/20/2014 14:12:47 -75.21, 25.58 94.22 2.71 55
4 08/20/2014 15:02:46 76.24,-163.81 84.60 08/20/2014 15:03:09 76.25,-163.73 84.55 2.34 23
5 08/23/2014 06:30:06 -75.38, 141.87 93.60 08/23/2014 06:29:44 -75.38, 141.84 93.57 0.98 22
6 08/23/2014
